Weather History for Saranac Lake, NY

Change the Weather History Date:

Saturday, April 6, 2013

  Actual Average Record
Temperature  
Mean Temperature 26 °F 34 °F  
Max Temperature 36 °F 45 °F 66 °F (1991)
Min Temperature 16 °F 22 °F 3 °F (2003)
Degree Days  
Heating Degree Days 39 31  
Month to date heating degree days 228 194  
Since 1 July heating degree days 7746 8156  
Cooling Degree Days 0 0  
Month to date cooling degree days 0 0  
Year to date cooling degree days 0 0  
Moisture  
Dew Point 8 °F    
Average Humidity 49    
Maximum Humidity 74    
Minimum Humidity 23    
Precipitation  
Precipitation T in 0.09 in 0.58 in (1987)
Month to date precipitation 0.01 0.56  
Year to date precipitation 2.75 6.58  
Sea Level Pressure  
Sea Level Pressure 30.16 in    
Wind  
Wind Speed 4 mph (WNW)    
Max Wind Speed 13 mph    
Max Gust Speed 21 mph    
Visibility 9 miles    
Events Snow    
T = Trace of Precipitation, MM = Missing Value Source: NWS Daily Summary

Daily Weather History Graph

Daily Weather History Graph

Search for Another Location

Airport:

Trip Planner

Search our weather history database for the weather conditions in past years. The results will help you decide how hot, cold, wet, or windy it might be!

Date:

Astronomy

Apr. 06, 2013 Rise Set
Actual Time 6:28 AM EDT 7:30 PM EDT
Civil Twilight 5:58 AM EDT 8:00 PM EDT
Nautical Twilight 5:23 AM EDT 8:35 PM EDT
Astronomical Twilight 4:46 AM EDT 9:13 PM EDT
Moon 4:19 AM EDT (4/6) 3:49 PM EDT (4/6)
Length of Visible Light 14h 01m
Length of Day
13h 02m
Waning Crescent, 15% of the Moon is Illuminated
Apr 6
Waning Crescent
Apr 10
New
Apr 18
First Quarter
Apr 25
Full
May 2
Last Quarter

Hourly Weather History & Observations

Time (EDT) Temp. Windchill Dew Point Humidity Pressure Visibility Wind Dir Wind Speed Gust Speed Precip Events Conditions
12:51 AM 23.0 °F 15.8 °F 9.0 °F 55% 30.02 in 10.0 mi Variable 5.8 mph - N/A   Overcast
1:51 AM 21.0 °F 14.6 °F 12.9 °F 71% 30.04 in 10.0 mi Variable 4.6 mph - 0.00 in   Mostly Cloudy
2:51 AM 19.9 °F 13.4 °F 10.0 °F 65% 30.07 in 10.0 mi Variable 4.6 mph - N/A   Partly Cloudy
3:03 AM 19.4 °F 9.5 °F 10.4 °F 68% 30.01 in 2.5 mi NNW 8.1 mph 18.4 mph 0.00 in Snow Light Snow
3:11 AM 19.4 °F 10.4 °F 14.0 °F 80% 30.02 in 0.8 mi NNW 6.9 mph 17.3 mph 0.00 in Snow Light Snow
3:25 AM 19.4 °F 11.5 °F 14.0 °F 80% 30.02 in 2.5 mi Variable 5.8 mph - 0.00 in Snow Light Snow
3:32 AM 19.4 °F 10.4 °F 14.0 °F 80% 30.03 in 7.0 mi NW 6.9 mph - 0.00 in Snow Light Snow
3:51 AM 19.0 °F 12.3 °F 12.9 °F 77% 30.10 in 10.0 mi WNW 4.6 mph - 0.00 in   Overcast
3:59 AM 19.4 °F 11.5 °F 12.2 °F 74% 30.03 in 10.0 mi Variable 5.8 mph - N/A   Overcast
4:23 AM 19.4 °F 10.4 °F 12.2 °F 74% 30.05 in 2.5 mi Variable 6.9 mph - 0.00 in Snow Light Snow
4:35 AM 17.6 °F 9.3 °F 10.4 °F 73% 30.06 in 7.0 mi Variable 5.8 mph - 0.00 in Snow Light Snow
4:51 AM 18.0 °F 11.1 °F 10.0 °F 71% 30.14 in 10.0 mi Variable 4.6 mph - 0.00 in   Mostly Cloudy
5:47 AM 17.6 °F - 10.4 °F 73% 30.10 in 10.0 mi Calm Calm - N/A   Scattered Clouds
5:51 AM 17.1 °F 8.7 °F 10.0 °F 74% 30.18 in 10.0 mi Variable 5.8 mph - N/A   Partly Cloudy
6:51 AM 16.0 °F 8.8 °F 7.0 °F 68% 30.21 in 10.0 mi Variable 4.6 mph - N/A   Clear
7:51 AM 19.0 °F 8.2 °F 6.1 °F 57% 30.24 in 10.0 mi WNW 9.2 mph - N/A   Clear
8:51 AM 19.9 °F 11.1 °F 1.9 °F 46% 30.26 in 10.0 mi Variable 6.9 mph - N/A   Clear
9:51 AM 21.9 °F 13.4 °F 1.9 °F 42% 30.26 in 10.0 mi Variable 6.9 mph 17.3 mph N/A   Clear
10:51 AM 24.1 °F 14.4 °F 3.0 °F 40% 30.27 in 10.0 mi NW 9.2 mph - N/A   Clear
11:51 AM 26.1 °F 20.5 °F 1.9 °F 35% 30.27 in 10.0 mi Variable 4.6 mph 17.3 mph N/A   Clear
12:51 PM 28.0 °F 21.7 °F 1.9 °F 33% 30.27 in 10.0 mi Variable 5.8 mph - N/A   Clear
1:51 PM 30.0 °F - 3.0 °F 32% 30.25 in 10.0 mi Calm Calm - N/A   Clear
2:51 PM 33.1 °F 27.7 °F 1.9 °F 27% 30.25 in 10.0 mi Variable 5.8 mph - N/A   Clear
3:51 PM 34.0 °F 28.8 °F 1.9 °F 26% 30.23 in 10.0 mi North 5.8 mph - N/A   Clear
4:51 PM 35.1 °F 30.1 °F 1.9 °F 25% 30.23 in 10.0 mi Variable 5.8 mph - N/A   Clear
5:51 PM 36.0 °F 33.3 °F 1.9 °F 24% 30.24 in 10.0 mi SSW 3.5 mph - N/A   Clear
6:51 PM 34.0 °F 28.8 °F 1.0 °F 25% 30.24 in 10.0 mi SW 5.8 mph - N/A   Clear
7:51 PM 28.0 °F - 9.0 °F 45% 30.24 in 10.0 mi Calm Calm - N/A   Partly Cloudy
9:51 PM 28.9 °F - 16.0 °F 58% 30.25 in 10.0 mi Calm Calm - N/A   Overcast
10:51 PM 28.9 °F - 14.0 °F 54% 30.22 in 10.0 mi Calm Calm - N/A   Overcast